This is the latest recevied weather packets stored in our database for station/object KA3RQR. If no packets are shown the sender has not sent any weather packets the latest 10 day(s).
| Time | Temp. | Humidity | Pressure | Rain* | Wind** | Luminosity | Snow |
|---|---|---|---|---|---|---|---|
| 1777731003 | 10° C | 64% | 1014.6 hPa | 0 mm | - | 166 W/m² | - |
| 1777730702 | 10° C | 66% | 1014.4 hPa | 0 mm | - | 164 W/m² | - |
| 1777730397 | 9.44° C | 65% | 1014.5 hPa | 0 mm | - | 150 W/m² | - |
| 1777730093 | 9.44° C | 65% | 1014.6 hPa | 0 mm | - | 134 W/m² | - |
| 1777729790 | 9.44° C | 68% | 1014.6 hPa | 0 mm | - | 139 W/m² | - |
| 1777729183 | 9.44° C | 67% | 1014.5 hPa | 0 mm | - | 123 W/m² | - |
| 1777728880 | 9.44° C | 67% | 1014.7 hPa | 0 mm | - | 120 W/m² | - |
| 1777728577 | 8.89° C | 68% | 1014.5 hPa | 0 mm | - | 115 W/m² | - |
| 1777728274 | 8.89° C | 68% | 1014.4 hPa | 0 mm | - | 118 W/m² | - |
| 1777727972 | 8.89° C | 69% | 1014.5 hPa | 0 mm | - | 111 W/m² | - |
| 1777727668 | 8.89° C | 68% | 1014.7 hPa | 0 mm | - | 104 W/m² | - |
| 1777727365 | 8.89° C | 70% | 1014.6 hPa | 0 mm | - | 105 W/m² | - |
| 1777726760 | 8.33° C | 70% | 1014.7 hPa | 0 mm | - | 101 W/m² | - |
| 1777725548 | 8.33° C | 71% | 1014.3 hPa | 0 mm | - | 75 W/m² | - |
| 1777725245 | 8.33° C | 70% | 1014.6 hPa | 0 mm | - | 88 W/m² | - |
| 1777724942 | 8.33° C | 70% | 1014.6 hPa | 0 mm | - | 81 W/m² | - |
| 1777724336 | 8.33° C | 71% | 1014.9 hPa | 0 mm | - | 75 W/m² | - |
| 1777724033 | 8.33° C | 70% | 1014.7 hPa | 0 mm | - | 66 W/m² | - |
| 1777723731 | 8.33° C | 71% | 1014.7 hPa | 0 mm | - | 85 W/m² | - |
| 1777723427 | 8.33° C | 71% | 1014.6 hPa | 0 mm | - | 66 W/m² | - |
| 1777723124 | 7.78° C | 71% | 1014.7 hPa | 0 mm | - | 72 W/m² | - |
| 1777722518 | 7.78° C | 71% | 1014.6 hPa | 0 mm | - | 53 W/m² | - |
| 1777722215 | 7.78° C | 72% | 1014.4 hPa | 0 mm | - | 50 W/m² | - |
| 1777721912 | 7.78° C | 72% | 1014.6 hPa | 0 mm | - | 44 W/m² | - |
| 1777721609 | 7.78° C | 72% | 1014.6 hPa | 0 mm | - | 37 W/m² | - |
* Rain latest hour (hover to see other rain measurements)
** Current wind speed in m/s (hover to see current wind gust speed)